Regional Weather Roundup
Issued by NWS

Home | Current Version | Previous Version | Graphics & Text | Print | Product List | Glossary Off
Versions: 1 2 3 4 5 6 7 8 9 10 11 12 13 14 15 16 17 18 19 20 21 22 23 24 25 26 27 28 29 30 31 32 33 34 35 36 37 38 39 40 41 42 43 44 45 46 47 48 49 50

000
ASUS43 KLOT 031710
RWRIL

ILLINOIS REGIONAL WEATHER ROUNDUP
NATIONAL WEATHER SERVICE CHICAGO/ROMEOVILLE IL
1100 AM CST TUE MAR 03 2015

NOTE: "FAIR" INDICATES FEW OR NO CLOUDS BELOW 12,000 FEET WITH NO
SIGNIFICANT WEATHER AND/OR OBSTRUCTIONS TO VISIBILITY.

* THESE STATIONS ARE NOT UNDER NWS QUALITY CONTROL. THEY ALSO MAY NOT
  REPORT WEATHER SUCH AS PRECIPITATION OR FOG.

ILZ001-002-007-009-015-016-024-031800-
NORTHWEST ILLINOIS

CITY           SKY/WX    TMP DP  RH WIND       PRES   REMARKS
MOLINE         CLOUDY    32  29  88 SW10      29.69F FOG     WCI  24
STERLING*      CLOUDY    30  28  93 SW9       29.69F WCI  22
SAVANNA*       MIX PCPN  32  30  93 SW7       29.68F VSB 1   WCI  26
$$

ILZ003-004-008-010-011-017-018-031800-
NORTH CENTRAL ILLINOIS

CITY           SKY/WX    TMP DP  RH WIND       PRES   REMARKS
ROCKFORD       FRZ DRZL  31  28  89 S13       29.68F FOG     WCI  21
FREEPORT*      CLOUDY    30  28  94 SW15      29.68F FOG     WCI  19
ROCHELLE*      CLOUDY    31  30  96 SW6       29.68F FOG     WCI  25
DE KALB*       CLOUDY    29  28  95 S12       29.67F FOG     WCI  20
PERU*          CLOUDY    33  32  96 SW10      29.70F FOG     WCI  25
$$

ILZ005-006-012>014-019>023-031800-
NORTHEAST ILLINOIS

CITY           SKY/WX    TMP DP  RH WIND       PRES   REMARKS
CHICAGO-OHARE  FRZ DRZL  31  29  92 S15       29.67F FOG     WCI  20
CHICAGO-MIDWAY LGT RAIN  33  30  88 S16G24    29.70F FOG     WCI  23
AURORA         CLOUDY    32  28  85 S18       29.69F FOG     WCI  20
LANSING*       LGT SNOW  32  31  94 S13       29.71F WCI  22
JOLIET*        DRIZZLE   32  30  94 S13       29.72F WCI  22
WAUKEGAN       FRZ RAIN  30  29  96 S17       29.64F FOG     WCI  18
DUPAGE AIRPORT MIX PCPN  31  29  92 S18G26    29.67F FOG     WCI  19
KANKAKEE*      RAIN      32  31  97 S12       29.73F WCI  23
WHEELING       MIX PCPN  31  29  92 S15       29.69F FOG     WCI  20
MORRIS*        CLOUDY    32  32 100 S13       29.71F FOG     WCI  22
ROMEOVILLE*    LGT RAIN  32  31  95 S14       29.70F WCI  22
NORTHERLY ISL    N/A     32  29  89 S7          N/A  WCI  26
$$

LMZ740>746-031800-
SOUTHERN LAKE MICHIGAN

STATION/POSITION SKY/WX   TEMP    WIND        PRES    VSBY  WAVE
                          AIR SEA DIR/SP/G                  HT/PER
                          (F)     (DEG/KT/KT) (MB)    (MI)  (FT/S)
WAUKEGAN HARBOR            30                   N/A
HARRISON CRIB              31     190/  2/  2   N/A
BURNHAM HARBOR             32     180/  6/  8   N/A
CALUMET HARBOR             31     180/ 15/ 22 1004.6F
MICHIGAN CITY              30     150/ 16/ 20   N/A
$$

ILZ025>027-034>036-040-047-049-050-058-095>099-031800-
WEST-CENTRAL ILLINOIS

CITY           SKY/WX    TMP DP  RH WIND       PRES   REMARKS
QUINCY         FOG       36  34  92 SW13      29.74R VSB 1   WCI  27
GALESBURG*     FOG       32  32  99 S10       29.71F VSB 1   WCI  24
MACOMB*        CLOUDY    33  32  98 SW8       29.75F VSB 1   WCI  26
JACKSONVILLE*  FOG       37  35  93 S8        29.77R VSB 1   WCI  31
PITTSFIELD*    FOG       37  35  94 SW10      29.78R VSB 1   WCI  29
$$

ILZ028>032-037-038-041>044-048-051>054-059>061-031800-
CENTRAL ILLINOIS

CITY           SKY/WX    TMP DP  RH WIND       PRES   REMARKS
PONTIAC        CLOUDY    34  33  97 S12       29.73S FOG     WCI  25
BLOOMINGTON    FOG       34  34 100 SW24G30   29.73S VSB 1   WCI  21
DECATUR        FOG       36  35  96 SW17      29.77S VSB 3/4 WCI  26
PEORIA         FOG       34  31  88 SW14      29.74S VSB 1   WCI  25
LACON*         CLOUDY    32  31  96 SW14      29.70F FOG     WCI  22
LINCOLN*       FOG       36  34  93 S7        29.78S VSB 1   WCI  30
SPRINGFIELD    CLOUDY    36  34  92 S15       29.77R FOG     WCI  27
TAYLORVILLE    CLOUDY    34  34 100 S14       29.78R FOG     WCI  24
$$

ILZ033-039-045-046-055>057-062-063-031800-
EAST-CENTRAL ILLINOIS

CITY           SKY/WX    TMP DP  RH WIND       PRES   REMARKS
CHAMPAIGN      LGT RAIN  34  33  96 S22       29.75F VSB 3/4 WCI  22
DANVILLE*      LGT RAIN  33  32  96 S18G24    29.73F WCI  22
RANTOUL*       LGT RAIN  35  34  95 S16       29.74F WCI  25
MATTOON        FOG       36  34  92 S15G26    29.77F VSB 3/4 WCI  27
PARIS*         CLOUDY    35  34  96 S18       29.79F FOG     WCI  24
$$

ILZ079-100>102-031800-
SOUTHWEST ILLINOIS

CITY           SKY/WX    TMP DP  RH WIND       PRES   REMARKS
ALTON          CLOUDY    39  36  87 S14       29.79F WCI  31
BELLEVILLE     CLOUDY    39  39  99 VRB5      29.79F
CAHOKIA*       CLOUDY    44  39  82 S6        29.80S
SPARTA*        CLOUDY    39  37  93 S14G20    29.84F WCI  30
$$

ILZ064>066-069>071-074>076-080>082-084>086-088>090-092>094-031800-
SOUTH-CENTRAL ILLINOIS

CITY           SKY/WX    TMP DP  RH WIND       PRES   REMARKS
CARBONDALE     CLOUDY    41  38  89 S16       29.88F
CAIRO*         FOG      N/A N/A N/A SW7       29.97S VSB 1/4
EFFINGHAM*     CLOUDY    39  36  89 S12G18    29.81F FOG     WCI  32
MARION         LGT RAIN  43  41  93 S18       29.91F
MT. VERNON     CLOUDY    39  36  87 S15       29.86F WCI  31
CENTRALIA*     CLOUDY    39  37  89 S21       29.82F FOG     WCI  29
SALEM*         CLOUDY    42  39  91 S16       29.82F FOG
METROPOLIS*    FOG       45  45 100 S8        29.95F VSB 1/2
$$

ILZ067-068-072-073-078-083-087-091-031800-
SOUTHEAST ILLINOIS

CITY           SKY/WX    TMP DP  RH WIND       PRES   REMARKS
LAWRENCEVILLE  LGT RAIN  38  37  97 S16       29.87F FOG     WCI  29
FLORA*         CLOUDY    38  38  98 S18       29.86F FOG     WCI  29
FAIRFIELD*     LGT RAIN  40  39  98 S9        29.87F
HARRISBURG*    RAIN      44  44 100 SW20G25   29.92F
ROBINSON*      RAIN      37  36  97 S10       29.87S WCI  30
CARMI*         CLOUDY    44  44 100 S14       29.90F FOG
$$

ABBREVIATIONS USED IN REMARKS
   TC - TEMPERATURE IN CELSIUS
  WCI - WIND CHILL INDEX
   HX - HEAT INDEX
  VSB - VISIBILITY
$$



USA.gov is the U.S. government's official web portal to all federal, state and local government web resources and services.